Location: Novokuznetsk
(53.7500°N, 87.1000°E)
Time: 19:34:22
(UTC+06:00)

ISS - Pass Details

Date: 03 March 2021
Orbit: 418 x 422 km, 51.6° (Epoch: 16 April)

Event Time Altitude Azimuth Distance (km) Brightness Sun altitude
Exits shadow 05:12:07 39° 241° (WSW) 643 -3.3 -16.0°
Maximum altitude 05:13:07 61° 179° (S) 480 -3.6 -15.9°
Drops below altitude 10° 05:16:27 10° 98° (E) 1,500 0.2 -15.4°
Sets 05:18:34 0° 95° (E) 2,365 1.7 -15.1°
